Погода в Габороне

Ботсвана     24°39′30″S   25°54′43″E
темп.,
°C
ветер,
м/с
пор.,
м/с
влажн.,
%
обл.,
%
осадки,
мм/ч
давл.,
гПа
погр.,
м
28 ноября, вс
вс2823:00+19св71361100 0.0 1017750
02:00+16св6107299 0.0 1017657
05:00+15св5137430 0.0 1017601
08:00+18ссв696559 0.2 1018652
11:00+26с693880 0.0 10151428
14:00+30сз893264 0.0 10112038
17:00+32сз472741 0.0 10092848
20:00+27ссз49382 0.0 1010274
29 ноября, пн
пн2923:00+24св23470 0.0 101248
02:00+22зюз22557 0.0 101224
05:00+21св22570 0.0 101325
08:00+26с344521 0.0 1014644
11:00+32ссз45290 0.0 10122114
14:00+33ссз3423100 0.1 10093103
17:00+29всв5632100 0.2 1008815
20:00+20ююз81177100 3.6 1015433
30 ноября, вт
вт3023:00+21вюв2573100 7.3 1013194
02:00+20ссв268010 7.3 1012247
05:00+19вюв12814 0.1 101233
08:00+24ссв48560 0.1 1013551
11:00+31с46320 0.0 10111775
14:00+35св232247 0.0 10084192
17:00+27з483775 0.0 1008416
20:00+26всв5103898 0.0 1010269
1 декабря, ср
ср123:00+24ююз4646100 0.2 1013268
02:00+23всв375610 0.3 1011254
05:00+22св3106052 0.3 1011334
08:00+26ссв694183 0.3 1012650
11:00+32ссв56265 0.0 10101860
14:00+35с542020 0.0 10074027
17:00+35с44173 0.0 10052843
20:00+29св392821 0.0 1007237
2 декабря, чт
чт223:00+27св6143174 0.0 1009640
02:00+25ююв1346100 0.4 1010162
05:00+24вюв2249100 0.0 101150
08:00+28св610339 0.0 10121296
11:00+33ссв792398 0.0 10092060
14:00+36ссв681887 0.0 10063830
17:00+35с561673 0.0 10043289
20:00+29в122596 0.0 100720